Regional Weather Roundup
Issued by NWS

Home | Current Version | Previous Version | Text Only | Print | Product List | Glossary Off
Versions: 1 2 3 4 5 6 7 8 9 10 11 12 13 14 15 16 17 18 19 20 21 22 23 24 25 26 27 28 29 30 31 32 33 34 35 36 37 38 39 40 41 42 43 44 45 46 47 48 49 50

096
ASUS43 KFSD 311902
RWRSD

WEATHER ROUNDUP FOR SOUTH DAKOTA
NATIONAL WEATHER SERVICE SIOUX FALLS SD
200 PM CDT WED AUG 31 2016

NOTE: "FAIR" INDICATES FEW OR NO CLOUDS BELOW 12,000 FEET WITH NO
SIGNIFICANT WEATHER AND/OR OBSTRUCTIONS TO VISIBILITY.


SDZ001>005-009-010-012>017-312000-
NORTHWEST AND NORTH CENTRAL SOUTH DAKOTA

CITY           SKY/WX    TMP DP  RH WIND       PRES   REMARKS
BUFFALO          N/A     89  43  20 SE29G37   30.06F
MOBRIDGE       SUNNY     88  55  32 SE13      30.16F
$$

SDZ012>016-024>037-041>051-057-063-072>074-312000-
SOUTHWEST AND SOUTH CENTRAL SOUTH DAKOTA

CITY           SKY/WX    TMP DP  RH WIND       PRES   REMARKS
RAPID CTY ARPT SUNNY     82  58  43 S18G28    30.21F
PIERRE         SUNNY     83  63  50 S7        30.18F
CUSTER         SUNNY     71  51  49 S10G17    30.33F
PHILIP         SUNNY     83  62  49 SE13G22   30.18F
PINE RIDGE     MOSUNNY   81  57  43 S12G22    30.23F
WINNER         FAIR      82  65  56 SE5       30.21F
$$

SDZ004>011-016>023-039-040-312000-
NORTHEAST SOUTH DAKOTA

CITY           SKY/WX    TMP DP  RH WIND       PRES   REMARKS
ABERDEEN       CLOUDY    76  60  57 S5        30.21F
WATERTOWN      SUNNY     79  53  40 VRB6      30.22F
SISSETON         N/A     81  55  40 E7        30.21F
$$

SDZ017-020-022-023-036>040-048>070-312000-
SOUTHEAST SOUTH DAKOTA

CITY           SKY/WX    TMP DP  RH WIND       PRES   REMARKS
SIOUX FALLS    MOSUNNY   83  59  44 CALM      30.22S
HURON          PTSUNNY   80  67  64 MISG      30.19F
CHAMBERLAIN    MOSUNNY   82  70  66 S6        30.20S
MITCHELL       MOSUNNY   81  60  48 SW6       30.21F
YANKTON        SUNNY     79  57  47 E7        30.19F
$$

ABBREVIATIONS USED IN REMARKS
   TC - TEMPERATURE IN CELSIUS
  WCI - WIND CHILL INDEX
   HX - HEAT INDEX
  VSB - VISIBILITY





USA.gov is the U.S. government's official web portal to all federal, state and local government web resources and services.